Location: Gansheim
(48.7806°N, 10.9525°E)
Time: 13:19:32
(UTC+00:00)

Daily predictions for brighter satellites

Satellite Brightness Start Highest point End
(mag) Time Altitude Azimuth Time Altitude Azimuth Time Altitude Azimuth
Meteor 1-27 Rocket 4.2 18:08:22 10° NNW 18:13:52 65° W 18:19:24 10° S
Cosmos 2061 Rocket 4.2 18:08:18 10° SSE 18:14:33 57° E 18:20:50 10° NNE
Cosmos 1937 Rocket 3.5 18:09:47 10° NNW 18:15:04 74° ENE 18:20:21 10° SSE
COSMOS 2428 3.8 18:11:07 10° SSE 18:15:25 22° E 18:19:43 10° NE
Cosmos 1818 4.3 18:11:37 10° S 18:16:20 31° ESE 18:21:06 10° NE
Cosmos 1726 2.6 18:15:17 10° SSE 18:17:37 23° E 18:19:58 10° NE
Cosmos 2233 Rocket 4.1 18:12:10 10° SSE 18:18:06 56° E 18:24:07 10° NNE
Cosmos 468 Rocket 4.3 18:14:39 10° SSW 18:19:44 75° WNW 18:24:54 10° NNE
Lacrosse 4 Rocket 2.1 18:16:01 10° NNW 18:20:10 41° NE 18:24:16 10° ESE
Meteor 2-4 Rocket 3.9 18:14:20 10° N 18:20:19 74° ENE 18:26:12 10° SSE
Cosmos 1943 Rocket 3.7 18:16:24 10° N 18:20:23 20° NE 18:24:21 10° E
USA 59 Rocket 0.9 18:18:02 10° NNW 18:21:15 30° NE 18:25:23 10° ESE
Cosmos 2292 Rocket 3.4 18:17:00 10° N 18:21:25 80° W 18:24:52 10° S
Cosmos 372 Rocket 4.1 18:17:46 10° NNW 18:22:57 81° WSW 18:28:09 10° SSE
ADEOS 3.6 18:18:54 10° SSE 18:24:07 90° WSW 18:29:23 10° NNW
Cosmos 841 Rocket 3.5 18:19:45 10° S 18:24:52 63° ESE 18:30:00 10° NNE
Intercosmos 24 4.5 18:22:58 10° NNW 18:26:28 56° W 18:30:17 10° S
PAYLOAD B 4.3 18:22:01 10° SSE 18:27:31 64° ENE 18:33:05 10° N
Cosmos 1328 Rocket 4.2 18:25:20 10° N 18:29:19 36° ENE 18:33:16 10° SE
Meteor 1-4 Rocket 3.6 18:28:17 10° NNE 18:30:06 16° ENE 18:31:20 13° E
Aureole 1 Rocket 4.1 18:26:24 10° NNW 18:30:45 43° WSW 18:34:14 10° S
USA 308 1.8 18:30:28 10° NNW 18:31:14 17° NNE 18:31:35 16° NE
Cosmos 1674 3.1 18:28:52 10° N 18:31:57 32° ENE 18:34:59 10° SE
Terra 3.8 18:31:20 10° ENE 18:32:58 12° NE 18:34:37 10° NNE
CZ-4B DEB 4.2 18:27:38 10° SSE 18:33:10 87° ENE 18:38:43 10° NNW
Cosmos 1743 2.7 18:29:44 10° S 18:33:12 51° E 18:36:41 10° NNE
Tsikada Rocket 4.1 18:30:02 10° N 18:36:20 90° ESE 18:42:39 10° S
Cosmos 2278 Rocket 3.1 18:31:37 10° NNW 18:36:42 32° NE 18:41:07 13° ESE
NOSS 2-1 (C) 4.0 18:34:23 10° NNW 18:37:46 39° NE 18:41:26 14° ESE
Kosmos-1783 4.3 18:36:41 10° S 18:38:14 15° SE 18:38:14 15° SE
Meteor 1-18 Rocket 4.3 18:33:03 10° N 18:39:01 81° ENE 18:44:55 10° SSE
CZ-4B R/B 3.3 18:35:25 10° SSE 18:40:50 61° ENE 18:46:10 10° N
CZ-4B R/B 2.7 18:37:07 10° SSE 18:40:51 87° ENE 18:44:49 10° NNW
Genesis I 3.4 18:37:43 10° SW 18:41:07 63° NW 18:44:36 10° NE
Iridium 4 Rocket 2.9 18:36:56 10° N 18:41:12 71° E 18:45:19 10° S
Cosmos 2016 Rocket 4.4 18:38:00 10° SSW 18:44:03 68° W 18:50:10 10° N
Resurs 1-3 4.4 18:40:46 10° S 18:44:59 52° W 18:49:15 10° NNW
USA 290 3.8 18:43:04 10° N 18:45:36 20° NE 18:47:00 16° E
TSX-5 3.5 18:43:32 10° NNW 18:46:36 48° NE 18:48:41 18° SE
CARTOSAT-1 3.5 18:42:25 10° SSE 18:46:37 68° ENE 18:50:52 10° N
SPOT 5 3.9 18:45:11 15° ESE 18:48:08 26° ENE 18:51:54 10° N
SPOT 1/Viking Rocket 4.1 18:43:24 10° S 18:48:31 62° W 18:53:39 10° NNW
NOSS 8 (A) 4.5 18:47:29 10° SW 18:51:31 86° NW 18:54:42 10° NE
ATLAS 2AS CENTAUR R/B 4.1 18:46:47 10° WSW 18:53:35 41° NNW 19:00:10 10° NE
USA 306 3.8 18:51:59 10° S 18:54:09 19° SE 18:54:09 19° SE
Okean 3 Rocket 4.4 18:51:02 10° SSE 18:54:52 29° E 18:58:44 10° NNE
ATLAS CENTAUR R/B 4.0 18:51:39 10° WNW 18:56:23 39° SW 19:03:27 10° SSE
USA 215 4.3 18:52:18 10° ENE 18:57:03 21° SE 19:01:45 10° S
ARGOS Delta rocket 4.2 18:51:57 10° S 18:57:08 75° W 19:02:05 10° NNW
Cosmos 1151 Rocket 4.0 18:53:17 10° NNW 18:57:25 48° W 19:01:29 10° SSW
MOS 1-B 4.4 18:52:12 10° SSE 18:57:56 68° ENE 19:03:42 10° N
Okean O Rocket 1.8 18:54:28 13° SE 18:58:16 52° ENE 19:02:35 10° N
Cosmos 2360 Rocket 3.1 18:52:55 10° SW 18:58:26 52° NW 19:03:57 10° NNE
Cosmos 1340 2.9 18:57:14 10° SSW 19:00:28 60° WNW 19:03:43 10° N
USA 186 2.0 18:58:43 10° S 19:01:53 71° WSW 19:05:08 10° NNW
Resurs 01 Rocket 1.7 18:58:23 10° SSE 19:02:49 83° WSW 19:07:17 10° NNW
GRACE-FO 1 4.4 19:03:14 10° S 19:06:45 65° E 19:10:16 10° N
Cosmos 2237 Rocket 3.2 19:04:46 18° SE 19:07:06 23° ESE 19:11:25 10° NE
GRACE-FO 2 4.4 19:03:39 10° S 19:07:10 66° E 19:10:41 10° N
Cosmos 2322 Rocket 3.8 19:02:11 10° WSW 19:07:28 38° NW 19:12:48 10° NNE
Helios 1A 3.8 19:04:57 10° N 19:08:55 51° WNW 19:12:52 10° SW
MOS 1 Rocket 4.4 19:06:49 21° ESE 19:09:13 32° ENE 19:13:47 10° N
ACS3 Solar Sail 1.9 19:05:10 11° SSE 19:11:12 64° ENE 19:17:32 10° N
Cosmos 1814 Rocket 4.1 19:06:03 10° S 19:11:12 54° ESE 19:16:20 10° NNE
BlueWalker 3 1.8 19:10:05 10° WNW 19:13:51 82° NNE 19:15:32 31° ESE
NOSS 2-1 (E) 3.5 19:10:08 10° NW 19:13:51 72° NE 19:16:32 25° SE
Cosmos 44 Rocket 3.6 19:09:23 10° NW 19:14:05 59° WSW 19:17:37 17° SSE
Okean-O 3.0 19:12:12 24° SE 19:14:27 45° ENE 19:18:39 10° N
Cosmos 1515 Rocket 3.8 19:11:11 10° N 19:15:25 49° ENE 19:17:32 26° SE
Cosmos 2333 Rocket 3.5 19:09:57 10° SW 19:15:26 43° NW 19:20:56 10° NNE
Feng Yun 1-1 Rocket 4.5 19:10:43 10° SSE 19:16:25 78° WSW 19:22:20 10° NNW
Cosmos 2219 Rocket 2.7 19:13:36 10° SW 19:19:14 64° WNW 19:24:54 10° NNE
Sich 1 4.4 19:20:26 21° ENE 19:20:26 21° ENE 19:23:11 10° NE
MetOp-B 4.4 19:17:45 24° SE 19:20:46 49° ENE 19:25:56 10° N
CSL-04 Rocket 3.9 19:17:40 10° S 19:23:03 71° WSW 19:28:24 10° NNW
NOSS 2-1 (D) 3.4 19:20:09 10° NW 19:23:52 90° N 19:26:15 29° SE
BREEZE-M DEB (TANK) 1.7 19:22:49 10° WSW 19:24:52 80° SSE 19:25:16 57° E
Cosmos 1842 3.0 19:22:11 10° NNW 19:25:49 82° W 19:27:54 24° S
Cosmos 1766 Rocket 3.9 19:27:59 10° SSW 19:32:17 66° WNW 19:36:40 10° N
USA 267 3.7 19:29:00 19° E 19:33:36 54° NNE 19:39:57 10° WNW
Cosmos 1500 Rocket 4.3 19:34:22 33° E 19:34:22 33° E 19:38:11 10° NNE
DELTA 2 DEB (DPAF) 4.1 19:30:55 10° NNE 19:34:59 48° E 19:36:00 39° SE
SWARM A 4.3 19:34:27 50° SE 19:35:07 64° E 19:38:37 10° N
Cosmos 1980 4.1 19:30:18 10° S 19:35:31 40° ESE 19:40:48 10° NE
IRS-1C Rocket 4.5 19:33:38 32° ESE 19:35:37 46° ENE 19:40:40 10° N
Cosmos 2369 Rocket 4.1 19:33:31 10° N 19:37:22 18° NE 19:39:53 14° ENE
BREEZE-M R/B 4.1 19:33:38 10° W 19:38:16 86° S 19:49:01 21° ESE
Meteor 1-13 Rocket 4.3 19:34:00 10° N 19:39:56 70° ENE 19:43:01 29° SSE
Cosmos 2322 3.8 19:34:21 10° SSW 19:40:00 77° WNW 19:45:42 10° NNE
USA 276 2.2 19:39:05 10° WNW 19:41:31 58° NW 19:41:31 58° NW
USA 32 4.3 19:37:07 10° N 19:42:13 48° ENE 19:43:41 38° ESE
Cosmos 1400 Rocket 4.5 19:39:16 10° NNW 19:42:41 31° W 19:46:03 10° SSW
Spot 2 Rocket 4.1 19:41:51 33° E 19:42:57 37° ENE 19:47:33 10° N
MOS 1 4.2 19:42:10 25° SSE 19:45:41 89° E 19:51:26 10° NNW
PSLV R/B 3.8 19:44:57 38° S 19:46:10 67° WSW 19:49:45 10° NNW
Cosmos 1707 3.1 19:43:51 10° NNW 19:47:20 53° W 19:48:45 31° SSW
Cosmos 1315 Rocket 2.8 19:44:10 10° N 19:48:04 55° ENE 19:48:16 54° E
CZ-4 R/B 4.0 19:45:39 10° SW 19:48:12 17° W 19:50:47 10° NW
Meteor 2-10 4.1 19:44:16 18° S 19:48:28 69° E 19:54:08 10° NNE
Cosmos 1428 Rocket 4.5 19:42:50 10° N 19:48:55 62° ENE 19:51:28 35° SE
Cosmos 1733 2.7 19:49:19 81° ESE 19:49:22 81° E 19:52:50 10° NNE
In-Cosmos 22 4.2 19:44:20 10° NNW 19:50:08 87° ENE 19:53:04 30° SSE
Cosmos 1570 Rocket 4.2 19:49:52 40° SE 19:50:59 47° ESE 19:56:01 10° NNE
Cosmos 1408 Rocket 3.5 19:50:28 51° SE 19:51:16 62° E 19:55:37 10° NNE
Cosmos 1536 2.9 19:55:08 30° SSW 19:56:52 70° WNW 20:00:41 10° N
Lacrosse 4 Rocket 3.2 19:54:32 10° NW 19:58:14 27° WSW 20:00:26 18° SSW
COSMOS 2428 3.0 19:53:25 10° SW 19:59:07 68° WNW 20:04:51 10° NNE
Cosmos 1818 4.3 19:54:18 10° WSW 19:59:39 56° NW 20:05:04 10° NNE
Cosmos 2195 Rocket 4.4 19:55:44 10° N 20:01:50 69° ENE 20:03:57 42° SSE
Nadezhda 4 Rocket 4.0 19:55:35 10° N 20:01:50 81° W 20:05:35 26° S
Meteor 1-4 Rocket 4.2 19:59:51 10° NW 20:01:53 19° W 20:02:22 19° WSW
Meteor 1-23 Rocket 4.2 19:56:18 10° N 20:01:54 64° ENE 20:03:21 47° SE
Cosmos 1356 Rocket 4.3 19:57:56 10° NNW 20:01:56 46° W 20:03:51 27° SSW
SL-16 R/B 4.3 20:07:19 12° ENE 20:07:19 12° ENE 20:07:53 10° NE
Cosmos 1092 Rocket 4.1 19:57:44 10° N 20:04:00 60° ENE 20:05:52 43° SE
Cosmos 1943 Rocket 2.0 19:59:25 10° NNW 20:04:58 84° ENE 20:06:28 50° SE
Terra 1.7 20:09:10 64° ESE 20:09:43 72° ENE 20:14:25 10° N
SL-14 R/B 3.8 20:06:08 10° N 20:09:04 45° NNE 20:09:04 45° NNE
USA 59 Rocket 1.0 20:07:02 10° NW 20:10:48 41° SW 20:11:54 35° SSW
Cosmos 2026 Rocket 3.9 20:04:31 10° N 20:10:49 68° ENE 20:12:32 48° SE
Cosmos 1464 Rocket 4.3 20:05:40 10° SSW 20:11:56 69° WNW 20:18:18 10° N
Cosmos 158 Rocket 3.9 20:13:21 56° ENE 20:13:21 56° ENE 20:17:35 10° NNE
Cosmos 1805 Rocket 3.6 20:14:26 61° NE 20:14:26 61° NE 20:18:13 10° NNE
Meteor 1-11 Rocket 3.7 20:09:42 18° SSW 20:13:57 81° WNW 20:19:34 10° N
Ariane Rocket 3.0 20:14:46 56° E 20:15:09 58° ENE 20:20:08 10° N
CRYOSAT 2 4.2 20:10:17 10° N 20:15:12 87° E 20:16:10 58° S
Cosmos 1125 Rocket 3.5 20:12:26 10° NNW 20:17:38 74° WSW 20:18:45 54° S
SPOT 3 Rocket 3.6 20:17:15 57° E 20:17:39 59° ENE 20:22:43 10° N
Cosmos 1634 Rocket 4.1 20:17:05 50° ESE 20:17:55 53° E 20:24:03 10° NNE
USA 290 4.0 20:17:10 10° NW 20:19:43 28° W 20:19:43 28° W
Cosmos 839 Rocket 4.4 20:11:26 10° SSW 20:20:12 73° ESE 20:27:10 10° NE
ERS-1 Rocket 2.9 20:19:35 57° S 20:20:36 80° WSW 20:25:39 10° NNW
Cosmos 2278 Rocket 2.7 20:15:33 10° NW 20:21:02 53° WSW 20:22:57 37° SSW
Meteor 2-9 Rocket 4.1 20:20:43 34° SSW 20:23:07 79° WNW 20:28:33 10° N
BREEZE-M DEB (TANK) 4.3 20:20:17 10° WNW 20:23:51 89° NNE 20:26:06 44° ESE
SPOT 5 3.7 20:24:19 31° SW 20:25:58 43° W 20:30:21 10° NNW
Cosmos 1707 Rocket 4.5 20:26:08 10° N 20:29:24 39° NE 20:29:24 39° NE
Cosmos 2034 Rocket 4.1 20:26:34 22° SSW 20:30:41 72° W 20:36:54 10° N
Celestis-02/Orion 38 4.3 20:28:45 10° NNE 20:33:55 81° ESE 20:34:00 81° SE
Okean O Rocket 4.0 20:31:48 11° SW 20:34:48 19° W 20:38:01 10° NW
Cosmos 1627 Rocket 4.4 20:29:17 10° N 20:35:38 84° W 20:37:10 54° S
Cosmos 2208 Rocket 3.9 20:35:48 80° E 20:35:48 80° E 20:41:03 10° NNE
NOSS 0 Rocket 4.4 20:33:35 10° SW 20:39:45 61° NW 20:45:58 10° NNE
USA 215 3.1 20:34:20 10° ENE 20:40:52 68° SE 20:47:23 10° SW
Cosmos 1656 Rocket 4.0 20:40:47 10° NNW 20:46:19 53° NE 20:46:19 53° NE
MOS 1 Rocket 4.5 20:45:58 34° SW 20:47:11 39° W 20:52:03 10° NNW
Meteor 1-21 4.1 20:41:29 10° NNW 20:47:14 84° W 20:47:41 76° SSW
Cosmos 2228 Rocket 3.7 20:42:59 10° N 20:46:31 52° N 20:46:31 52° N
Meteor 2-12 Rocket 4.4 20:42:29 10° NNW 20:48:40 82° W 20:49:33 67° SSW
Cosmos 2237 Rocket 2.5 20:46:17 17° SW 20:50:40 65° WNW 20:56:17 10° NNE
BlueWalker 3 4.4 20:48:33 10° W 20:49:46 16° W 20:49:46 16° W
Cosmos 2297 4.0 20:48:28 10° NNW 20:53:48 53° NE 20:53:48 53° NE
ACS3 Solar Sail 3.6 20:50:30 10° SW 20:55:44 26° W 21:01:00 10° NNW
Sich 1 4.1 20:57:04 40° WNW 20:57:04 40° WNW 21:01:06 10° N
Cosmos 2279 Rocket 3.9 21:06:50 79° ENE 21:06:50 79° ENE 21:12:53 10° N
NOSS 3-3 (C) 4.5 21:09:29 44° NE 21:09:29 44° NE 21:13:53 10° NE
BREEZE-M DEB (TANK) 3.4 20:57:37 10° W 21:10:46 88° WSW 21:10:46 88° WSW
USA 267 3.1 21:16:21 75° SSW 21:16:27 76° SW 21:23:03 10° WNW
Cosmos 2369 Rocket 2.6 21:16:45 10° NNW 21:21:39 60° N 21:21:39 60° N
NOSS 3-3 (A) 4.2 21:25:46 60° NNE 21:25:46 60° NNE 21:31:08 10° NE
SL-16 R/B 3.1 21:49:08 45° NNE 21:49:08 45° NNE 21:53:03 10° NNE
Terra 4.2 21:47:52 15° W 21:47:52 15° W 21:50:36 10° NW
Cosmos 1943 Rocket 4.2 21:44:35 10° WNW 21:47:57 17° W 21:47:58 17° W
NOSS 3-4 (A) 3.7 21:41:31 10° NW 21:47:59 82° NW 21:47:59 82° NW
NOSS 3-4 (C) 3.7 21:41:37 10° NW 21:48:05 83° NW 21:48:05 83° NW
Cosmos 2266 Rocket 4.3 21:50:10 10° NNW 21:55:29 62° NW 21:55:29 62° NW
Cosmos 1655 Rocket 4.5 22:10:50 10° NNW 22:15:58 58° NNW 22:15:58 58° NNW
USA 215 3.7 22:17:27 10° NE 22:23:50 57° NNW 22:30:13 10° W
ATLAS 2AS CENTAUR R/B 4.3 22:33:32 10° NW 22:39:32 30° NNE 22:43:40 17° ENE
Cosmos 2369 Rocket 4.4 23:01:42 10° NW 23:03:25 16° WNW 23:03:25 16° WNW
Cosmos 1980 Rocket 4.3 23:25:58 10° N 23:30:11 21° NE 23:31:54 18° ENE
SL-16 R/B 4.4 23:30:58 17° WNW 23:32:28 19° NW 23:36:23 10° N
